Visibility
15.0 15.0 15.0 15.0 15.0 15.0 15.0 15.0 15.0 15.0 15.0 15.0 15.0 15.0 15.0 15.0 15.0 15.0 15.0 15.0 15.0 15.0 15.0 15.0 15.0 15.0 15.0 15.0 15.0 15.0 15.0 15.0 15.0 15.0 15.0 15.0 15.0 15.0
15.0 15.0 15.0 15.0 15.0 15.0 15.0 15.0 15.0 15.0 15.0 15.0 15.0 15.0 15.0 15.0 15.0 15.0 15.0 15.0 15.0 15.0 15.0 15.0 15.0 15.0 15.0 15.0 15.0 15.0 15.0 15.0 15.0 15.0 15.0 15.0 15.0 15.0
15.0 15.0 15.0 15.0 15.0 15.0 15.0 15.0 15.0 15.0 15.0 15.0 15.0 15.0 15.0 15.0 15.0 15.0 15.0 15.0 15.0 15.0 15.0 15.0 15.0 15.0 15.0 15.0 15.0 15.0 15.0 15.0 15.0 15.0 15.0 15.0 15.0 15.0
15.0 15.0 15.0 15.0 15.0 15.0 15.0 15.0 15.0 15.0 15.0 15.0 15.0 15.0 15.0 15.0 15.0 15.0 15.0 15.0 15.0 15.0 15.0 15.0 15.0 15.0 15.0 15.0 15.0 15.0 15.0 15.0 15.0 15.0 15.0 15.0 15.0 15.0
15.0 15.0 15.0 15.0 15.0 15.0 15.0 15.0 15.0 15.0 15.0 15.0 15.0 15.0 15.0 15.0 15.0 15.0 15.0 15.0 15.0 15.0 15.0 15.0 15.0 15.0 15.0 15.0 15.0 15.0 15.0 15.0 15.0 15.0 15.0 15.0 15.0 15.0
15.0 15.0 15.0 15.0 15.0 15.0 15.0 15.0 15.0 15.0 15.0 15.0 15.0 15.0 15.0 15.0 15.0 15.0 15.0 15.0 15.0 15.0 15.0 15.0 15.0 15.0 15.0 15.0 15.0 15.0 15.0 15.0 15.0 15.0 15.0 15.0 15.0 15.0
15.0 15.0 15.0 15.0 15.0 15.0 15.0 15.0 15.0 15.0 15.0 15.0 15.0 15.0 15.0 15.0 15.0 15.0 15.0 15.0 15.0 15.0 15.0 10.5 12.2 15.0 15.0 15.0 15.0 15.0 15.0 15.0 15.0 15.0 15.0 15.0 15.0 15.0
14.9 15.0 15.0 15.0 15.0 15.0 15.0 15.0 15.0 15.0 15.0 15.0 15.0 15.0 15.0 15.0 15.0 15.0 15.0 15.0 15.0 14.0 5.5 8.5 10.6 15.0 15.0 15.0 15.0 15.0 15.0 15.0 15.0 15.0 15.0 15.0 15.0 15.0
15.0 15.0 15.0 15.0 15.0 15.0 15.0 15.0 15.0 15.0 15.0 15.0 15.0 15.0 15.0 15.0 8.1 11.6 15.0 15.0 14.4 11.0 5.3 6.4 9.6 15.0 15.0 15.0 15.0 15.0 15.0 15.0 15.0 15.0 15.0 15.0 15.0 15.0
15.0 15.0 15.0 15.0 15.0 15.0 15.0 15.0 15.0 15.0 15.0 15.0 15.0 13.2 10.4 4.8 4.8 13.4 15.0 14.7 15.0 11.9 8.8 11.4 15.0 15.0 15.0 15.0 15.0 15.0 15.0 15.0 15.0 15.0 15.0 15.0 15.0 15.0
14.7 5.7 4.6 5.9 6.9 6.6 2.1 0.3 0.4 1.2 3.4 4.0 4.1 3.8 6.8 4.7 9.7 15.0 12.3 10.1 10.5 14.4 10.2 15.0 15.0 15.0 15.0 15.0 15.0 15.0 15.0 15.0 15.0 15.0 15.0 15.0 15.0 15.0
0.2 0.4 2.7 5.0 4.1 3.8 0.2 0.1 0.1 0.2 0.1 0.2 2.3 2.1 6.9 9.0 8.6 15.0 15.0 15.0 15.0 15.0 15.0 15.0 15.0 15.0 15.0 15.0 15.0 15.0 15.0 15.0 15.0 15.0 15.0 15.0 15.0 15.0
0.2 0.6 15.0 14.6 15.0 15.0 13.3 7.7 5.6 13.4 7.2 13.1 15.0 14.4 9.0 15.0 15.0 15.0 15.0 15.0 15.0 15.0 15.0 15.0 15.0 15.0 15.0 15.0 15.0 15.0 15.0 15.0 15.0 15.0 15.0 15.0 15.0 15.0
1.5 15.0 15.0 15.0 15.0 15.0 15.0 15.0 15.0 15.0 15.0 15.0 15.0 15.0 15.0 15.0 15.0 15.0 15.0 15.0 15.0 15.0 15.0 15.0 15.0 15.0 15.0 11.7 15.0 15.0 15.0 15.0 15.0 15.0 15.0 15.0 15.0 15.0
15.0 15.0 15.0 15.0 15.0 15.0 15.0 15.0 15.0 15.0 15.0 15.0 15.0 15.0 15.0 15.0 15.0 15.0 15.0 15.0 15.0 15.0 15.0 15.0 15.0 15.0 15.0 15.0 14.6 12.0 15.0 15.0 15.0 15.0 15.0 15.0 15.0 15.0
15.0 15.0 15.0 15.0 15.0 15.0 15.0 15.0 15.0 15.0 15.0 15.0 15.0 15.0 15.0 13.7 2.8 0.8 0.5 11.8 3.3 15.0 15.0 15.0 15.0 15.0 5.7 13.6 12.9 5.4 14.0 11.1 13.7 15.0 15.0 15.0 15.0 15.0
15.0 7.2 0.1 0.1 0.1 5.3 1.6 15.0 15.0 15.0 15.0 15.0 15.0 13.5 8.7 0.1 0.2 0.1 0.1 2.7 15.0 15.0 7.1 10.4 15.0 15.0 15.0 14.4 10.1 5.1 4.3 4.5 15.0 15.0 15.0 15.0 15.0 15.0
5.5 0.1 0.0 0.1 0.1 0.1 0.1 13.2 15.0 15.0 15.0 15.0 0.3 0.4 1.1 0.1 0.3 0.2 0.9 15.0 15.0 13.8 5.2 5.4 5.8 15.0 15.0 15.0 15.0 11.6 4.4 4.1 11.4 9.6 15.0 4.5 15.0 15.0
0.2 0.0 0.0 0.1 0.1 0.1 0.1 0.1 0.1 15.0 2.0 0.6 0.1 0.1 0.2 0.1 0.1 0.1 4.8 15.0 6.4 11.2 4.1 4.1 4.1 6.1 15.0 15.0 15.0 15.0 7.1 12.8 8.5 4.4 5.3 4.4 4.3 15.0
0.1 0.0 0.0 0.0 0.0 0.0 0.1 0.1 12.6 1.4 0.5 0.3 0.1 0.2 0.2 0.7 0.5 0.2 9.8 7.8 7.5 4.1 4.1 4.1 4.1 4.1 15.0 15.0 5.7 15.0 15.0 5.5 4.5 4.2 6.4 15.0 15.0 15.0
0.0 0.0 0.1 0.0 0.0 0.7 1.7 1.3 3.8 0.9 0.4 0.2 0.3 0.3 0.1 0.1 0.1 0.2 6.4 15.0 9.4 4.1 4.1 4.1 9.6 15.0 3.8 2.9 3.2 15.0 15.0 15.0 14.8 4.9 6.6 3.8 4.9 12.5
0.0 0.0 0.0 0.0 0.1 0.3 0.8 0.5 0.5 0.3 0.2 0.2 0.6 0.2 0.2 0.1 0.1 0.5 15.0 15.0 8.4 5.9 6.7 4.1 4.4 4.1 4.1 4.1 4.1 4.2 12.2 15.0 15.0 15.0 15.0 12.9 9.5 4.1
0.0 0.0 0.1 0.0 0.1 1.5 0.8 1.3 0.8 0.2 0.1 0.1 0.1 0.1 0.1 0.1 0.2 4.0 14.9 15.0 15.0 10.8 4.1 4.1 4.1 4.1 4.0 1.7 5.5 4.1 4.1 5.4 7.0 15.0 15.0 15.0 15.0 15.0